Showing default

KOSEN-1, 49402

Orbit data source: Space-Track

KOSEN-1, 49402 is a payload satellite owned by Kochi College (JP) in SSO that was launched on Tue, 09 Nov 2021 UTC via an EPSILON launch vehicle from the Kagoshima Space Center University Of Tokyo (KSCUT). Payload-class satellites include a variety of spacecraft equipped with specific instruments for various scientific and technological missions. These include communications satellites like Starlink; space stations such as the ISS; scientific satellites like the Hubble; Earth observation satellites from companies like Planet Labs, Umbra, and HawkEye 360; GPS; miniature CubeSats for education and research; and military/defense satellites.

Loading next visibility...
Identifier
49402, 2021-102H
Orbit
SSO
Country
Flag of JPJP / JPN
Related business
Manufacturer
Kochi College
Mission
Operational Amateur Astronomy
Bus & Motor
CUBESAT 2U, Unknown motor
Mass
3 kg wet, 3 kg dry
Launch date (UTC)
2021-11-09 (4 years ago)
Launch vehicle
EPSILON
Launch site
Kagoshima Space Center University Of Tokyo (KSCUT)
Object type
Payload
Rocket body
Debris
Shape & HBR
Box, 0.1 m
Radar Cross Section
0.025 m², Small (<0.1 m²)

Expand to show TLE details & history
Last TLE update: 11 hours ago

TLE from 11 hours ago
0 KOSEN-1
1 49402U 21102H   26095.10865292  .00010250  00000-0  40187-3 0  9991
2 49402  97.3273 138.7085 0015723 105.3412 254.9566 15.25831854242870
Epoch: 2026-04-05T02:36Z
TLE epoch observation values (Epoch: 2026-04-05T02:36:27.612Z)
Latitude
0.00006°
Longitude
-93.82536°
Altitude
494.208 km
Speed
7.616 km/s
True Right ascension
09h 14m 50s
True Declination
0° 00' 00"
Sunlit
Object was in full shadow at epoch
Visualization orbit readout
Latitude
Unknown
Longitude
Unknown
Altitude
Unknown
Speed
Unknown
Apparent Right ascension
Unknown
Apparent Declination
Unknown
Sunlit
N/A
Visualization observer readout
Local Sidereal Time
19:27:53
Azimuth
Unknown
Elevation
Unknown
Doppler factor
Unknown
Orbital elements
Apogee altitude
496.035 km
Perigee altitude
474.452 km
Semi-major axis
6,863.38 km
Eccentricity
0.00157
Inclination
97.3273°
RAAN
138.7085°
Arg. of periapsis
105.3412°
True anomaly
254.78269°
Mean anomaly
254.9566°
Eccentric anomaly
254.86964°
Mean motion
3.81712 °/min
Orbital period
94.31 mins
BSTAR
0.00040187
Loading maneuver chart data...
Computing Atmospheric mass density...
Loading historical data...
Loading historical data...
Loading historical data...
Loading historical data...
Loading historical data...
Loading historical data...
Loading historical data...

Documentation

Showing up to 5 results
|